Find Kosmos-2379

NORAD ID: 26892 Int'l Des: 2001-037 Owner: PVO Country: RU operational
MEOCIRCULAR

現在のビュー

3D地球を読み込み中...

Kosmos-2379について

説明を読み込み中...

次回通過

Passes for default location (London). Set your location on the main map for personalized predictions.

高度履歴

Loading altitude history...

軌道要素

1 26892U 01037A 26151.45634475 -.00000332 00000-0 00000+0 0 9999
2 26892 13.2482 14.4030 0005376 241.3318 290.7004 1.00280359 90698
Epoch: May 31, 2026 • Age: 9 hours

現在のステータス

高度 35774.4 km
速度 3.08 km/s
衛星直下点 -11.39°S, 133.95°E
打ち上げ日 Aug 24, 2001
運用期間 24.7 years
タイプ other

技術仕様

分類 Payload
質量 2200.00 kg
乾燥質量 2100.00 kg
総質量 2200.00 kg
長さ 5.00 m
直径 2.00 m
スパン 10.00 m
形状 Step Cyl + 2 Pan
製造者 NPOL/KOMET
バスタイプ Prognoz
フェーズステータス In Orbit
所有者/国 PVO/RU

Most Searched